Preview of NWS' New Version of Forecast
This preview is not operational and should not be used for support decisions.

Regional Weather Roundup (RWR)

Issued by National Weather Service (NWS)

                            
000
ASUS45 KBOU 192010
RWRCO 

WEATHER ROUNDUP FOR COLORADO
NATIONAL WEATHER SERVICE DENVER/BOULDER CO
200 PM MDT WED JUN 19 2019

NOTE: "FAIR" INDICATES FEW OR NO CLOUDS BELOW 12000 FEET WITH NO
SIGNIFICANT WEATHER AND/OR OBSTRUCTIONS TO VISIBILITY.

COZ001>005-013-030-031-192100-
...NORTHWEST COLORADO...
  
CITY           SKY/WX    TMP DP  RH WIND       PRES   REMARKS
CRAIG          FAIR      75  42  30 W20G32    30.01F                  
HAYDEN         FAIR      71  41  33 W22G29    30.04F                  
MEEKER         FAIR      75  39  27 W15G28    30.03F                  
RANGELY        FAIR      82  39  21 W14G22    29.97F                  
RABBIT EARS PA NOT AVBL                                               
STEAMBOAT SPGS PTSUNNY   65  47  51 W3        30.06F                  
WALDEN         FAIR      63  36  36 SW21      30.11F                  
$$

COZ006>008-011-192100-
...WEST CENTRAL VALLEYS...
  
CITY           SKY/WX    TMP DP  RH WIND       PRES   REMARKS
GRAND JUNCTION FAIR      82  48  30 MISG      29.98F                  
MONTROSE       FAIR      79  43  27 W8        30.07F                  
EAGLE          CLOUDY    70  39  32 W24G30    30.08F                  
RIFLE          FAIR      77  51  40 VRB5      30.02F                  
DELTA          FAIR      83  41  22 SW6       30.02F                  
NUCLA          FAIR      79  37  22 NW3       30.10F                  
$$

COZ017>023-064>068-192100-
...SOUTHWEST COLORADO...
  
CITY           SKY/WX    TMP DP  RH WIND       PRES   REMARKS
DURANGO        FAIR      79  37  22 W18G33    30.11F                  
CORTEZ         FAIR      82  37  20 W15G24    30.09F                  
PAGOSA SPRINGS FAIR      71  38  29 CALM      30.19F                  
TELLURIDE      FAIR      63  36  36 W8        30.32F                  
WOLF CREEK PAS FAIR      48  32  53 S9G16     30.50S                  
$$

COZ009-010-012-014-032>034-037-058>063-192100-
...CENTRAL COLORADO...
  
CITY           SKY/WX    TMP DP  RH WIND       PRES   REMARKS
ASPEN          PTSUNNY   68  41  37 N9G18     30.13F                  
BUENA VISTA    FAIR      72  26  18 W15G21    30.12F                  
COPPER MTN     FAIR      46  30  53 W15       30.38R                  
BERTHOUD PASS  PTSUNNY   41  32  70 W37G45    30.35F                  
COTTONWOOD PAS PTSUNNY   61  25  25 W6G33     30.25F                  
GUNNISON       FAIR      69  35  28 W18G26    30.15F                  
GRANBY         MOCLDY    61  43  52 W8        30.15F                  
KREMMLING      PTSUNNY   70  41  35 W17G28    30.10F                  
LEADVILLE      PTSUNNY   57  32  38 NW9G24    30.25F                  
MONARCH PASS   FAIR      48  36  61 MISG      30.48F                  
SALIDA         FAIR      76  31  19 W16G26    30.17F                  
SUNLIGHT       PTSUNNY   48  36  61 SW12G25   30.36F                  
WILKERSON PASS PTSUNNY   52  27  37 W8G18     30.35F                  
$$

COZ069>075-192100-
...SAN LUIS VALLEY/SANGRE DE CRISTO MOUNTAINS...
  
CITY           SKY/WX    TMP DP  RH WIND       PRES   REMARKS
ALAMOSA        FAIR      71  32  23 N8G16     30.14F                  
DEL NORTE      CLOUDY    71  35  26 NE6       30.16F                  
LA VETA PASS   NOT AVBL                                               
SAGUACHE       PTSUNNY   72  34  25 NW14G29   30.15F                  
$$

COZ035-036-038>040-192100-
...NORTHERN COLORADO FRONT RANGE...
  
CITY           SKY/WX    TMP DP  RH WIND       PRES   REMARKS
DENVER INTL AP FAIR      79  41  25 SW8       29.90F                  
AURORA         MOSUNNY   79  39  24 W7        29.92F                  
FRONT RANGE AP MOSUNNY   77  45  31 E7        29.92F                  
ERIE MUNI ARPT FAIR      83  34  17 MISG      29.92F                  
BOULDER MUN AP FAIR      81  36  19 NW14G25   29.88F                  
CENTENNIAL     FAIR      81  37  20 NW10      29.93F                  
BROOMFIELD     MOSUNNY   82  32  16 NW14G24   29.92F                  
FORT COLLINS     N/A     79  46  31 VRB6      29.87F                  
LONGMONT       FAIR      83  38  20 SE3       29.88F                  
$$

COZ041-046-047-076>085-087-088-192100-
...PIKES PEAK/PALMER DIVIDE AND SOUTHERN FOOTHILLS...
  
CITY           SKY/WX    TMP DP  RH WIND       PRES   REMARKS
COLO. SPRINGS  FAIR      76  42  29 SW12G18   29.98F                  
A. F. ACADEMY  PTSUNNY   74  31  20 W9G18     29.97F                  
SCHRIEVER AFB  NOT AVBL                                               
CHEYENNE MTN   NOT AVBL                                               
ELLICOTT         N/A    N/A N/A N/A SW9       29.98                   
FALCON         PTSUNNY   74  40  29 S10G16    30.04F                  
FORT CARSON    FAIR      73  45  36 SE10      29.95F                  
LIMON          FAIR      74  45  35 NW9       29.94F                  
MONUMENT HILL  FAIR      70  43  37 W13       30.04F                  
CANON CITY     FAIR      86  34  15 W15G24    29.93F                  
WALSENBURG     NOT AVBL                                               
TRINIDAD       FAIR      78  41  26 NE7G17    29.98F                  
$$

COZ042>045-048>051-090-091-192100-
...NORTHEAST COLORADO...
  
CITY           SKY/WX    TMP DP  RH WIND       PRES   REMARKS
GREELEY ARPT   FAIR      80  48  32 VRB3      29.87F                  
AKRON          FAIR      74  51  44 VRB7G18   29.89F                  
BURLINGTON     FAIR      79  47  32 NW16G24   29.88F                  
WRAY           FAIR      79  45  29 W7G20     29.85F                  
YUMA           FAIR      75  10   8 NW8       29.87F                  
STERLING       FAIR      79  48  34 N5        29.83F                  
HOLYOKE        FAIR      79  50  36 NW9       29.85F                  
FORT MORGAN    PTSUNNY   74  43  32 SW5       29.88F                  
$$

COZ086-089-092>099-192100-
...SOUTHEAST COLORADO...
  
CITY           SKY/WX    TMP DP  RH WIND       PRES   REMARKS
PUEBLO         FAIR      80  44  27 VRB3      29.90F                  
LA JUNTA       FAIR      83  45  26 MISG      29.90F                  
LAMAR          FAIR      79  52  38 NE7       29.86F                  
SPRINGFIELD      N/A     78  50  37 W9        29.92F                  
$$